RH
74 89 97 96 97 97 96 96 92 81 70 45 13 5 4 3 4 10 17 14 10 18 25 29 26 19 44 48 57 51 36 32 30 30 31 34 35 32 29 27 28 33 32 35 30 28 26
81 96 98 98 96 94 88 79 56 52 59 35 7 4 4 4 6 16 19 18 16 25 32 34 31 35 47 34 50 41 35 33 34 34 35 38 39 35 28 31 27 34 37 40 37 32 29
65 72 96 97 97 88 85 71 36 22 19 13 5 5 6 6 5 15 21 17 21 30 30 31 34 43 41 46 43 40 39 39 40 40 40 41 39 32 34 33 36 35 35 36 33 36 32
67 55 52 58 67 83 84 70 49 37 10 5 4 5 8 8 9 13 15 15 27 28 28 30 38 39 42 39 43 41 39 38 40 37 38 38 39 40 34 33 31 37 35 36 23 39 35
73 59 52 44 50 55 49 41 32 19 9 5 4 6 8 9 15 19 23 16 23 26 28 40 37 40 49 41 41 40 39 40 36 39 39 39 40 42 42 39 34 40 34 34 31 38 43
68 56 57 40 34 60 56 48 21 8 5 4 4 6 8 10 20 19 29 22 27 30 30 35 34 32 34 42 37 39 39 39 39 38 41 47 55 52 55 45 23 30 35 30 28 26 39
74 58 54 55 61 66 54 57 43 14 6 4 4 7 9 11 20 18 22 36 26 41 37 44 39 30 33 36 36 38 36 40 40 41 45 44 40 38 38 45 36 35 32 35 32 26 37
66 58 53 44 51 70 68 52 42 16 6 4 4 8 11 12 28 24 28 65 71 70 44 37 36 34 32 34 40 40 37 38 38 43 39 42 38 32 34 31 31 32 34 37 35 30 33
72 60 53 45 35 41 51 34 22 8 6 4 4 8 12 15 30 38 42 69 69 66 50 39 36 38 36 35 46 46 41 43 40 38 39 42 34 30 31 33 30 31 34 37 38 37 28
78 65 56 48 25 18 23 30 26 11 5 4 4 7 12 15 28 52 54 53 63 66 50 42 43 42 37 35 48 40 42 39 37 38 40 35 30 32 35 36 36 41 34 36 37 40 36
82 68 59 51 28 14 11 8 7 6 5 4 4 8 19 21 29 38 39 57 61 56 38 34 40 33 28 39 44 45 41 40 48 46 36 20 36 36 37 33 38 36 35 34 32 38 49
84 74 62 54 36 20 14 10 6 6 5 3 4 9 21 26 48 40 46 59 64 51 29 37 34 32 30 27 34 43 40 34 35 40 42 41 38 36 37 37 36 35 38 43 50 52 76
84 78 66 56 42 23 26 17 12 7 4 3 4 16 25 25 31 39 55 62 44 48 20 33 40 33 30 27 29 35 45 52 45 36 36 40 39 40 37 40 40 44 55 64 51 76 55
86 78 68 58 48 20 12 8 8 5 5 3 6 19 33 30 30 47 53 35 17 29 34 39 36 33 32 31 28 34 52 58 50 51 59 67 53 39 32 41 44 44 53 65 43 71 48
84 79 70 61 52 29 17 7 5 4 4 4 10 45 42 39 37 51 45 42 36 40 42 41 38 37 30 34 32 37 48 58 54 55 42 49 41 36 29 29 33 32 49 46 55 60 80
89 81 72 64 54 29 21 12 7 4 3 6 21 48 48 30 46 47 36 37 55 50 49 44 31 30 28 36 35 33 49 44 51 42 45 53 49 36 34 24 25 32 32 52 65 66 75
91 83 74 67 55 32 22 13 7 4 4 16 48 38 44 32 38 47 31 41 52 44 52 51 44 43 36 40 38 36 38 52 43 42 39 39 50 36 34 32 27 27 36 39 48 61 79
91 89 79 69 56 35 24 14 10 5 9 25 50 21 31 45 42 71 62 54 48 46 44 51 50 49 47 48 44 46 54 52 37 34 43 43 56 68 46 30 24 26 27 36 64 53 49
94 94 88 75 54 26 18 17 11 8 10 46 44 48 39 47 23 56 54 51 50 45 45 47 52 47 45 48 39 59 62 48 34 33 37 24 33 38 26 35 30 30 26 28 36 54 59
96 96 91 80 50 23 19 15 10 9 7 35 46 31 49 51 46 59 56 50 50 42 42 39 45 38 40 50 42 58 71 55 33 30 36 24 36 31 30 34 39 42 35 34 40 86 54
100 97 95 80 45 36 23 12 10 9 11 34 47 33 47 42 34 43 48 54 55 45 42 37 36 40 38 41 38 42 57 55 37 38 45 37 47 46 42 43 42 41 42 42 47 47 66
100 99 95 82 64 58 46 14 11 13 20 41 45 42 51 47 35 36 42 55 53 46 44 43 46 36 26 27 32 34 33 44 46 57 44 40 40 48 56 40 42 43 40 42 42 44 55
100 100 96 90 81 82 58 22 13 16 29 45 50 42 32 52 37 34 33 39 48 48 41 37 36 32 29 49 44 42 45 42 42 60 60 48 51 67 76 46 54 59 74 88 78 84 95
100 98 94 90 90 85 51 16 15 15 28 38 34 39 35 30 37 40 41 44 52 39 46 46 41 36 51 43 40 41 45 45 46 45 43 57 59 65 86 65 98 71 73 74 83 97 95
100 98 92 90 90 60 27 19 16 14 25 42 34 40 44 55 48 49 50 54 48 49 57 60 55 51 50 46 41 38 45 47 48 54 56 51 65 85 88 91 62 87 83 84 84 84 96
99 95 90 90 85 48 37 17 16 18 21 36 42 44 46 60 64 56 54 48 54 60 58 60 47 50 49 47 41 47 46 45 60 55 52 62 72 80 94 90 79 73 80 51 78 94 88
100 95 97 99 78 55 40 26 20 26 34 36 64 42 44 83 93 66 52 51 51 57 65 58 50 54 48 58 50 56 55 44 56 72 71 81 86 93 94 93 94 86 54 47 91 78 72
100 99 98 98 74 54 40 24 21 29 33 31 65 44 54 93 75 70 74 66 63 58 64 58 63 66 73 71 67 76 75 69 58 64 68 70 80 92 95 96 95 54 56 68 76 69 66
100 98 98 90 88 42 38 30 33 42 35 33 61 58 51 75 70 52 51 64 72 70 71 81 68 82 89 91 94 88 74 63 74 83 73 87 83 93 86 91 85 71 71 61 62 72 74
Wind_Speed
8 7 8 8 9 11 12 13 14 15 15 15 15 15 15 15 15 14 15 12 10 9 8 7 4 2 3 4 1 5 4 4 4 4 5 3 4 3 0 3 2 1 3 5 4 3 3
8 7 7 8 9 10 11 12 13 15 15 15 14 14 15 15 15 16 16 14 11 8 7 5 3 3 2 2 1 4 4 4 7 5 4 6 2 1 2 2 0 3 4 7 7 4 2
8 7 8 9 10 11 12 12 13 13 13 14 14 15 16 16 16 14 16 13 10 6 5 5 4 3 5 2 2 3 4 6 6 5 2 3 3 2 2 3 4 3 6 7 2 3 3
8 9 10 11 11 11 12 13 13 13 13 14 15 15 15 16 16 14 13 10 7 6 5 6 5 4 3 1 2 3 4 0 3 4 2 2 2 1 1 2 5 5 3 5 4 5 1
7 8 9 11 12 13 14 13 12 12 13 13 14 15 16 16 15 14 11 5 4 6 5 4 4 2 1 1 2 5 5 2 4 2 3 2 2 2 4 3 4 5 2 2 7 2 3
7 8 9 11 11 12 13 14 13 12 12 13 14 13 14 14 12 13 10 2 5 4 3 3 3 4 1 1 2 3 3 3 1 3 3 3 4 3 3 4 3 1 2 3 4 1 1
7 8 9 10 11 12 13 13 12 11 11 12 13 13 14 14 10 14 10 2 4 4 9 3 2 2 1 1 2 4 3 4 1 2 2 1 3 3 6 6 5 3 4 5 4 4 4
6 7 9 10 10 11 13 13 12 12 11 12 13 13 13 13 8 12 7 6 3 1 2 2 2 2 2 2 2 6 8 2 1 1 2 5 1 3 3 1 1 2 3 5 6 2 4
6 6 8 10 11 12 13 13 11 11 12 12 12 12 12 11 4 8 14 6 2 1 3 2 1 1 1 2 2 5 4 1 2 2 3 3 3 2 1 1 1 3 4 3 4 6 1
8 7 8 9 11 11 12 12 11 10 11 12 12 12 12 9 2 4 3 3 2 2 4 2 1 0 1 1 1 1 3 1 3 1 3 4 3 0 2 1 2 3 2 1 2 4 2
9 8 8 10 11 11 12 12 10 10 10 11 11 10 10 8 2 3 3 2 1 1 4 1 2 1 1 2 2 1 2 2 2 1 4 5 2 1 2 3 2 6 2 2 2 4 2
10 9 9 10 11 11 11 11 9 9 9 9 10 8 7 4 4 3 2 1 1 6 5 1 1 1 1 0 0 2 5 8 2 1 1 4 5 1 3 1 3 4 3 2 4 3 2
12 11 9 10 11 11 11 10 9 8 9 9 8 5 4 3 1 3 1 2 5 4 0 2 2 1 1 1 0 2 5 6 3 4 4 6 1 2 1 3 2 5 5 4 4 2 5
14 12 11 10 11 11 11 11 9 8 9 8 7 2 2 0 3 1 1 5 2 3 3 0 1 0 3 3 1 3 4 2 4 3 2 2 4 3 3 1 0 1 4 4 5 3 4
17 14 12 11 12 11 10 9 8 8 8 8 4 1 0 1 0 2 5 3 5 4 1 1 2 1 2 1 2 4 2 3 1 3 3 2 5 4 2 2 2 1 2 2 1 3 2
20 15 13 11 11 12 11 9 8 7 8 7 2 1 1 1 2 2 4 5 3 1 1 1 5 3 3 3 2 4 5 1 3 1 1 2 4 1 4 2 5 1 1 2 1 4 6
21 18 14 12 11 11 10 9 7 6 6 3 1 3 1 1 3 4 3 5 2 1 1 3 4 2 2 4 3 3 2 1 2 1 2 1 2 4 2 4 1 4 0 3 1 3 4
23 20 16 13 11 9 8 7 7 5 2 1 3 1 1 3 3 1 2 1 1 1 5 0 2 1 4 4 2 4 5 1 1 1 3 1 3 4 6 4 3 3 2 2 3 3 1
27 22 18 14 10 8 6 6 7 6 4 1 3 2 1 3 3 2 1 2 3 1 2 1 1 1 1 3 3 3 3 1 3 3 4 1 1 3 2 3 2 5 2 3 1 2 5
29 24 19 13 9 5 4 5 7 7 4 4 2 1 3 3 1 6 5 4 3 1 1 1 1 1 1 3 2 4 3 3 2 3 5 2 2 5 5 1 1 4 3 3 4 2 5
31 27 22 14 9 4 4 7 7 6 7 6 2 3 2 2 2 4 4 6 4 4 1 1 1 3 3 4 3 5 4 3 1 3 3 4 4 2 3 5 4 5 5 7 6 9 6
35 30 25 21 16 11 8 8 7 5 10 5 4 3 3 1 1 5 2 6 8 3 5 3 3 3 2 3 2 3 4 4 5 2 4 2 1 1 3 8 6 8 8 6 7 7 3
36 31 26 20 16 15 9 8 8 6 14 3 3 2 4 2 2 4 3 3 4 8 1 4 2 4 2 2 2 2 2 3 4 6 5 5 3 1 3 2 5 7 2 1 0 3 1
37 32 24 17 15 13 8 8 8 8 17 5 5 5 4 2 3 2 3 2 5 2 5 2 5 4 2 2 1 1 1 2 2 4 4 4 4 3 3 2 2 2 2 3 3 1 3
38 29 22 18 14 10 8 7 8 7 17 9 6 4 3 3 3 4 5 5 6 5 4 3 3 2 1 2 1 1 2 2 2 5 7 5 3 1 2 2 3 1 3 2 3 4 2
37 29 23 18 14 10 9 4 5 4 13 14 8 6 5 6 0 1 4 3 3 3 2 2 2 2 3 2 1 3 4 4 2 1 1 4 3 3 2 2 4 4 1 4 4 4 3
34 27 24 20 17 11 6 6 2 8 9 12 6 9 7 4 4 3 3 3 4 3 3 2 1 2 3 2 2 2 3 2 3 4 4 2 1 5 6 5 2 1 5 1 4 5 3
32 29 23 20 17 14 9 5 6 8 13 10 10 7 6 3 5 7 5 2 2 2 3 3 3 2 2 1 1 2 1 2 1 1 1 4 3 3 2 1 5 2 1 2 2 3 5
32 29 25 20 17 15 11 9 8 8 12 13 10 20 22 12 4 18 23 15 7 0 4 3 3 2 2 3 1 1 0 1 1 2 3 1 2 2 1 1 1 4 7 1 2 3 4
Wind_Direction
33 35 37 28 22 17 13 9 6 5 5 6 6 3 1 360 358 358 354 352 353 345 344 353 6 76 111 58 63 355 354 355 1 7 20 25 52 2 347 334 346 172 307 322 337 280 242
24 31 30 26 21 14 12 9 6 7 6 4 4 2 359 358 356 359 356 352 352 351 352 5 31 97 92 110 86 15 17 10 25 34 35 41 68 359 324 305 32 320 297 280 279 252 224
10 16 22 19 14 11 9 5 7 7 6 4 3 3 1 358 355 354 354 355 356 8 17 29 50 72 58 126 54 54 44 37 38 37 62 46 20 71 348 342 336 328 319 323 264 212 194
4 4 2 4 3 6 5 2 5 6 6 5 4 2 1 358 354 353 354 1 26 38 50 57 59 48 69 19 53 20 12 350 34 29 78 42 11 106 119 315 8 357 45 355 311 126 4
351 357 1 1 1 359 358 359 2 4 5 6 5 3 0 357 354 353 353 4 63 69 75 77 80 71 80 20 10 9 15 8 321 320 357 352 45 84 23 82 16 8 254 240 314 131 105
341 347 356 355 358 358 358 358 360 3 3 2 2 0 359 358 357 349 347 8 71 74 55 59 55 54 46 353 343 352 353 341 350 323 21 51 50 75 36 69 229 240 304 278 259 279 139
329 340 349 353 355 354 355 354 357 358 359 1 360 357 357 356 0 354 3 106 21 2 39 102 261 136 61 344 8 11 354 331 344 38 146 7 86 191 208 200 207 226 215 250 243 237 190
314 332 339 344 347 351 352 352 353 356 359 0 358 355 357 355 2 10 16 70 62 294 50 8 59 54 33 8 14 352 355 25 25 118 107 23 251 223 214 135 258 229 244 261 286 13 153
292 317 327 336 342 345 348 349 352 352 356 357 356 355 354 352 7 28 68 72 84 115 97 4 353 84 281 16 48 323 10 317 40 48 16 184 219 192 168 234 253 236 217 252 242 331 305
276 303 312 326 334 338 342 346 348 351 352 354 354 352 355 360 98 22 53 59 121 134 75 284 177 313 79 113 16 273 1 61 12 27 324 247 307 287 7 256 148 279 151 171 275 42 218
264 287 297 313 326 332 335 338 341 346 351 353 351 351 358 31 24 56 359 27 109 113 17 228 231 213 139 162 143 328 35 57 118 261 86 253 176 10 310 244 156 238 350 291 228 224 96
255 269 288 304 320 325 329 330 334 338 343 346 347 351 8 11 45 32 45 125 113 45 263 201 86 236 359 151 233 45 31 31 54 329 334 254 310 281 231 281 278 310 333 328 43 105 290
246 262 275 290 307 316 322 326 329 332 334 338 340 351 21 6 9 349 18 53 36 130 135 187 188 99 352 185 156 68 33 16 40 41 354 333 340 320 356 318 22 63 46 330 331 356 235
242 256 268 284 299 310 316 321 322 324 330 333 331 350 337 2 354 31 83 52 183 222 196 197 183 226 216 176 250 51 102 104 33 72 120 141 310 4 351 102 239 345 161 169 259 233 264
235 246 260 276 292 301 308 314 317 321 323 328 327 326 107 142 14 131 80 73 220 201 156 89 354 193 257 253 187 83 28 160 103 41 163 169 269 319 33 351 73 23 173 145 318 254 314
231 239 253 264 280 295 305 309 315 320 320 328 333 343 135 341 139 108 82 234 219 48 30 140 213 163 229 201 188 174 185 202 155 114 183 193 299 4 305 75 40 120 75 66 40 257 241
228 234 247 259 274 292 302 308 317 321 316 333 355 47 110 108 125 51 177 216 168 119 134 167 203 207 210 195 184 217 172 339 136 168 31 65 121 284 318 32 44 340 70 51 255 181 237
225 229 239 249 263 284 295 305 315 321 308 234 108 13 56 149 63 21 167 330 65 142 6 126 112 161 192 170 204 197 203 30 85 81 145 16 141 260 258 313 10 102 113 115 156 244 271
219 225 233 237 255 270 279 302 308 305 196 184 137 196 56 150 181 196 229 60 66 85 0 345 144 12 308 180 202 126 129 92 78 82 139 163 220 331 351 297 18 74 75 112 162 136 204
215 218 220 229 237 244 283 300 304 301 214 177 97 39 330 47 82 141 161 202 177 50 96 46 125 26 135 197 36 164 143 192 123 122 133 93 195 210 224 74 133 263 204 229 187 160 253
210 210 209 207 204 222 303 304 304 291 203 182 63 232 187 210 242 166 153 138 146 189 119 72 340 237 194 200 175 196 138 137 39 165 121 141 218 233 275 275 259 248 254 254 247 248 218
206 207 206 200 203 220 248 285 296 272 188 192 145 146 16 113 63 118 158 212 169 155 151 210 207 170 199 217 296 190 129 175 192 159 156 168 252 70 264 259 255 279 269 269 278 296 256
198 198 203 206 212 226 229 254 276 232 182 164 156 127 112 345 105 115 221 158 179 130 37 40 171 123 128 98 46 81 62 77 151 162 178 154 181 116 263 335 334 288 261 327 320 70 327
189 200 204 205 212 217 213 236 252 234 201 189 165 137 111 179 120 182 126 94 127 107 136 62 68 100 74 0 272 103 45 277 218 222 177 153 151 163 255 335 244 272 130 136 128 90 325
188 192 195 198 197 189 204 227 233 225 203 203 176 154 128 108 118 91 99 111 79 57 70 65 43 128 131 67 67 331 351 349 262 216 200 188 135 232 218 199 309 261 331 77 99 276 249
184 194 186 189 174 183 213 208 222 212 195 196 167 132 101 121 304 18 112 126 130 109 56 61 42 61 74 80 169 221 230 225 248 321 137 111 99 147 125 185 258 220 278 26 118 282 272
168 179 174 169 159 164 197 201 168 182 163 158 107 135 99 102 8 5 115 166 117 107 112 136 145 56 52 106 217 219 254 219 223 187 196 154 167 203 232 251 269 197 317 334 76 256 306
167 166 163 161 153 165 173 165 176 145 164 151 89 124 95 94 32 28 46 63 74 102 139 162 90 36 69 114 211 245 170 249 117 8 245 187 184 203 79 23 273 341 85 213 245 288 308
161 157 157 157 155 156 160 164 138 143 156 142 90 99 98 83 131 81 66 48 32 209 125 38 119 107 154 91 241 73 228 34 98 245 357 257 186 164 175 217 72 22 102 350 289 292 302